TimeCST,TemperatureF,Dew PointF,Humidity,Sea Level PressureIn,VisibilityMPH,Wind Direction,Wind SpeedMPH,Gust SpeedMPH,PrecipitationIn,Events,Conditions,WindDirDegrees,DateUTC
12:53 AM,50.0,25.0,38,30.37,10.0,North,16.1,23.0,N/A,,Clear,10,2014-01-06 06:53:00
1:53 AM,48.0,25.0,41,30.40,10.0,North,19.6,26.5,N/A,,Clear,10,2014-01-06 07:53:00
2:53 AM,46.0,21.9,39,30.43,10.0,North,15.0,-,N/A,,Clear,10,2014-01-06 08:53:00
3:53 AM,45.0,21.0,39,30.45,10.0,North,12.7,23.0,N/A,,Clear,360,2014-01-06 09:53:00
4:53 AM,44.1,21.0,40,30.48,10.0,North,16.1,25.3,N/A,,Clear,350,2014-01-06 10:53:00
5:53 AM,43.0,21.0,42,30.49,10.0,North,13.8,24.2,N/A,,Clear,360,2014-01-06 11:53:00
6:53 AM,42.1,21.0,43,30.53,10.0,North,13.8,-,N/A,,Clear,350,2014-01-06 12:53:00
7:53 AM,42.1,21.9,45,30.58,10.0,North,11.5,-,N/A,,Clear,350,2014-01-06 13:53:00
8:53 AM,41.0,21.0,45,30.62,10.0,North,11.5,-,N/A,,Clear,360,2014-01-06 14:53:00
9:53 AM,41.0,19.9,43,30.65,10.0,NNE,13.8,-,N/A,,Clear,20,2014-01-06 15:53:00
10:53 AM,41.0,21.0,45,30.68,10.0,North,16.1,-,N/A,,Clear,350,2014-01-06 16:53:00
11:53 AM,42.1,21.9,45,30.67,10.0,North,15.0,21.9,N/A,,Clear,350,2014-01-06 17:53:00
12:53 PM,41.0,21.0,45,30.63,10.0,North,18.4,-,N/A,,Partly Cloudy,10,2014-01-06 18:53:00
1:53 PM,41.0,19.9,43,30.62,10.0,North,11.5,19.6,N/A,,Clear,10,2014-01-06 19:53:00
2:53 PM,39.9,21.0,47,30.64,10.0,North,10.4,-,N/A,,Scattered Clouds,360,2014-01-06 20:53:00
3:53 PM,41.0,21.0,45,30.66,10.0,NNW,9.2,-,N/A,,Overcast,340,2014-01-06 21:53:00
4:53 PM,39.9,21.0,47,30.65,10.0,North,12.7,-,0.00,,Overcast,360,2014-01-06 22:53:00
5:53 PM,39.9,19.0,43,30.64,10.0,North,11.5,-,N/A,,Overcast,360,2014-01-06 23:53:00
6:53 PM,39.9,21.0,47,30.67,10.0,North,10.4,-,0.00,,Mostly Cloudy,10,2014-01-07 00:53:00
7:53 PM,37.9,26.1,62,30.68,10.0,NNE,8.1,-,0.00,Rain,Light Rain,20,2014-01-07 01:53:00
8:53 PM,37.9,25.0,60,30.71,10.0,North,6.9,-,0.00,Rain,Light Rain,360,2014-01-07 02:53:00
9:53 PM,37.0,27.0,67,30.69,10.0,North,8.1,-,0.00,Rain,Light Rain,10,2014-01-07 03:53:00
10:53 PM,37.9,25.0,60,30.68,10.0,North,9.2,-,0.00,,Overcast,10,2014-01-07 04:53:00
11:53 PM,37.0,21.9,54,30.66,10.0,NNE,8.1,-,N/A,,Overcast,20,2014-01-07 05:53:00